Time_in_sec,Latitude,Longitude,Altitude,Nbsat_max_qualitysignal,Nbsat_locked,valid_data
1326903339.02555990,47.37637329,8.55026245,499.88757324,4,8,1
1326903507.67346287,47.37638092,8.55026627,491.97195435,6,9,1
1326903507.72547793,47.37638092,8.55026627,491.98751831,6,9,1
1326903507.77250457,47.37638092,8.55026627,492.00305176,6,9,1
1326903507.82451582,47.37638092,8.55026627,492.13693237,6,9,1
1326903507.87366056,47.37638092,8.55026627,492.15280151,6,9,1
1326903507.92449498,47.37638092,8.55026627,492.16864014,6,9,1
1326903507.97310686,47.37638092,8.55026531,492.18441772,6,9,1
1326903508.02493000,47.37638092,8.55026531,492.20016479,6,9,1
1326903508.07264137,47.37638092,8.55026531,492.32696533,6,9,1
1326903508.12547731,47.37638092,8.55026531,492.34304810,6,9,1
1326903508.17263460,47.37638092,8.55026531,492.35910034,6,9,1
1326903508.22563434,47.37638092,8.55026531,492.37509155,6,9,1
1326903508.27353191,47.37638092,8.55026531,492.39102173,6,9,1
1326903508.32455683,47.37638092,8.55026436,492.51931763,6,9,1
1326903508.37351537,47.37638092,8.55026436,492.53558350,6,9,1
1326903508.42485094,47.37638092,8.55026436,492.55181885,6,9,1
1326903508.47261763,47.37638092,8.55026436,492.56802368,6,9,1
1326903508.52551150,47.37638092,8.55026436,492.58416748,6,9,1
1326903508.57363796,47.37638092,8.55026436,492.71722412,6,9,1
1326903508.62465858,47.37638092,8.55026436,492.73376465,6,9,1
1326903508.67368841,47.37638092,8.55026436,492.75024414,6,9,1
1326903508.72164965,47.37638092,8.55026340,492.76666260,6,9,1
1326903508.77352405,47.37638092,8.55026340,492.78305054,6,9,1
1326903508.83261704,47.37638092,8.55026340,492.91171265,6,9,1
1326903508.87355542,47.37638092,8.55026340,492.93179321,6,9,1
1326903508.92572618,47.37638092,8.55026340,492.94519043,6,9,1
1326903508.97349882,47.37638092,8.55026340,492.96188354,6,9,1
1326903509.02453208,47.37638092,8.55026245,492.97851562,6,9,1
1326903509.07353568,47.37638092,8.55026245,493.10800171,6,9,1
1326903509.12449026,47.37638092,8.55026245,493.12500000,6,9,1
1326903509.17351770,47.37637711,8.55026245,493.14190674,6,9,1
1326903509.22455549,47.37637711,8.55026245,493.15881348,6,9,1
1326903509.27256179,47.37637711,8.55026245,493.17565918,6,9,1
1326903509.32549477,47.37637711,8.55026150,493.30380249,6,9,1
1326903509.37351584,47.37637711,8.55026150,493.32101440,6,9,1
1326903509.42452240,47.37637711,8.55026150,493.33819580,6,9,1
1326903509.47352648,47.37637711,8.55026150,493.35534668,6,9,1
1326903509.52552986,47.37637711,8.55026054,493.47430420,6,9,1
1326903509.57471013,47.37637711,8.55026054,493.49655151,6,9,1
1326903509.62473893,47.37637711,8.55026054,493.51397705,6,9,1
1326903509.67269373,47.37637711,8.55026054,493.53140259,6,9,1
1326903509.72533512,47.37637711,8.55026054,493.54876709,6,9,1
1326903509.77348661,47.37637711,8.55026054,493.56607056,6,9,1
1326903509.82461452,47.37637711,8.55026054,493.69314575,6,9,1
1326903509.87354136,47.37637711,8.55026054,493.71084595,6,9,1
1326903509.92253256,47.37637711,8.55026054,493.72848511,6,9,1
1326903509.97252655,47.37637711,8.55026054,493.74606323,6,9,1
1326903510.02454066,47.37637711,8.55026054,493.76358032,6,9,1
1326903510.07354474,47.37637711,8.55025959,493.88043213,6,9,1
1326903510.12547874,47.37637711,8.55025959,493.89828491,6,9,1
1326903510.17252398,47.37637711,8.55025959,493.91610718,6,9,1
1326903510.22460914,47.37637711,8.55025959,493.93386841,6,9,1
1326903510.27352285,47.37637711,8.55025959,493.95156860,6,9,1
1326903510.32564449,47.37637329,8.55025959,494.06054688,6,9,1
1326903510.37254119,47.37637329,8.55025959,494.07855225,6,9,1
1326903510.42460680,47.37637329,8.55025864,494.09646606,6,9,1
1326903510.47262383,47.37637329,8.55025864,494.11437988,6,9,1
1326903510.52548075,47.37637329,8.55025864,494.13226318,6,9,1
1326903510.57361150,47.37637329,8.55025864,494.23034668,6,9,1
1326903510.62462926,47.37637329,8.55025864,494.24844360,6,9,1
1326903510.67354655,47.37637329,8.55025864,494.26651001,6,9,1
1326903510.72553825,47.37637329,8.55025864,494.28454590,6,9,1
1326903510.77223539,47.37637329,8.55025768,494.30252075,6,9,1
1326903510.82477593,47.37637329,8.55025768,494.39257812,6,9,1
1326903510.87363958,47.37637329,8.55025768,494.41076660,6,9,1
1326903510.92554212,47.37637329,8.55025768,494.42889404,6,9,1
1326903510.97500062,47.37637329,8.55025768,494.44699097,6,9,1
1326903511.02479696,47.37637329,8.55025768,494.46505737,6,9,1
1326903511.07351136,47.37637329,8.55025768,494.54135132,6,9,1
1326903511.12482762,47.37637329,8.55025673,494.55957031,6,9,1
1326903511.17351770,47.37637329,8.55025673,494.57772827,6,9,1
1326903511.22521615,47.37637329,8.55025673,494.59585571,6,9,1
1326903511.27364326,47.37636948,8.55025673,494.61392212,6,9,1
1326903511.32547832,47.37636948,8.55025673,494.69119263,6,9,1
1326903511.37363482,47.37636948,8.55025673,494.70941162,6,9,1
1326903511.42450571,47.37636948,8.55025673,494.72763062,6,9,1
1326903511.47367358,47.37636948,8.55025673,494.74578857,6,9,1
1326903511.52470517,47.37636948,8.55025673,494.76391602,6,9,1
1326903511.57420993,47.37636948,8.55025578,494.82833862,6,9,1
1326903511.62565470,47.37636948,8.55025578,494.84658813,6,9,1
1326903511.67446232,47.37636948,8.55025578,494.86480713,6,9,1
1326903511.72547412,47.37636948,8.55025578,494.88296509,6,9,1
1326903511.77277684,47.37636948,8.55025578,494.90112305,6,9,1
1326903511.82465935,47.37636948,8.55025578,494.95657349,6,9,1
1326903511.87352991,47.37636948,8.55025578,494.97476196,6,9,1
1326903511.92459059,47.37636948,8.55025578,494.99295044,6,9,1
1326903511.97353506,47.37636948,8.55025578,495.01104736,6,9,1
1326903512.02467394,47.37636948,8.55025578,495.02911377,6,9,1
1326903512.07426763,47.37636948,8.55025482,495.07507324,6,9,1
1326903512.12549591,47.37636948,8.55025482,495.09317017,6,9,1
1326903512.17252874,47.37636948,8.55025482,495.11117554,6,9,1
1326903512.22461319,47.37636566,8.55025482,495.12918091,6,9,1
1326903512.27361417,47.37636566,8.55025482,495.14712524,6,9,1
1326903512.32554460,47.37636566,8.55025387,495.18640137,6,9,1
1326903512.37511039,47.37636566,8.55025387,495.20440674,6,9,1
1326903512.42551994,47.37636566,8.55025387,495.22235107,6,9,1
1326903512.47444701,47.37636566,8.55025387,495.24023438,6,9,1
1326903512.52547550,47.37636566,8.55025387,495.25808716,6,9,1
1326903512.57250166,47.37636566,8.55025387,495.28179932,6,9,1
1326903512.62453699,47.37636566,8.55025291,495.29959106,6,9,1
1326903512.67355514,47.37636566,8.55025291,495.31732178,6,9,1
1326903512.72552061,47.37636566,8.55025291,495.33502197,6,9,1
1326903512.77468491,47.37636566,8.55025291,495.35269165,6,9,1
1326903512.82459545,47.37636566,8.55025291,495.37347412,6,9,1
1326903512.87530398,47.37636566,8.55025291,495.39105225,6,9,1
1326903512.92547750,47.37636566,8.55025291,495.40859985,6,9,1
1326903512.97250772,47.37636566,8.55025291,495.42608643,6,9,1
1326903513.02511859,47.37636566,8.55025291,495.44354248,6,9,1
1326903513.07354760,47.37636566,8.55025196,495.45507812,6,9,1
1326903513.12508607,47.37636566,8.55025196,495.47244263,6,9,1
1326903513.17350173,47.37636566,8.55025196,495.48974609,6,9,1
1326903513.22551274,47.37636566,8.55025196,495.50704956,6,9,1
1326903513.27261734,47.37636566,8.55025196,495.51443481,6,9,1
1326903513.32562184,47.37636566,8.55025196,495.53274536,6,9,1
1326903513.37265801,47.37636566,8.55025196,495.54992676,6,9,1
1326903513.42464685,47.37636566,8.55025196,495.56704712,6,9,1
1326903513.47500205,47.37636566,8.55025196,495.58416748,6,9,1
1326903513.52500486,47.37636566,8.55025101,495.58682251,6,9,1
1326903513.57351756,47.37636566,8.55025101,495.60113525,6,9,1
1326903513.62450671,47.37636566,8.55025101,495.61801147,6,9,1
1326903513.67265224,47.37636566,8.55025101,495.63488770,6,9,1
1326903513.72546530,47.37636566,8.55025101,495.65170288,6,9,1
1326903513.77263474,47.37636566,8.55025101,495.66845703,6,9,1
1326903513.82452178,47.37636566,8.55025101,495.66195679,6,9,1
1326903513.87356901,47.37636566,8.55025101,495.67855835,6,9,1
1326903513.92516327,47.37636566,8.55025005,495.69512939,6,9,1
1326903513.97255635,47.37636566,8.55025005,495.71163940,6,9,1
1326903514.02702284,47.37636566,8.55025005,495.72814941,6,9,1
1326903514.07348537,47.37636566,8.55025005,495.71231079,6,9,1
1326903514.12546945,47.37636566,8.55025005,495.72857666,6,9,1
1326903514.17350459,47.37636566,8.55025005,495.74481201,6,9,1
1326903514.22613382,47.37636566,8.55025005,495.76098633,6,9,1
1326903514.27351093,47.37636566,8.55024910,495.74835205,6,9,1
1326903514.32549453,47.37636566,8.55024910,495.76641846,6,9,1
1326903514.37352133,47.37636566,8.55024910,495.78237915,6,9,1
1326903514.42450953,47.37636566,8.55024910,495.79827881,6,9,1
1326903514.47249818,47.37636566,8.55024910,495.81414795,6,9,1
1326903514.52549648,47.37636566,8.55024910,495.82998657,6,9,1
1326903514.57429504,47.37636566,8.55024910,495.80755615,6,9,1
1326903514.62449694,47.37636566,8.55024815,495.82315063,6,9,1
1326903514.67351651,47.37636566,8.55024815,495.83868408,6,9,1
1326903514.72465897,47.37636566,8.55024815,495.85415649,6,9,1
1326903514.77351761,47.37636566,8.55024815,495.86959839,6,9,1
1326903514.82497835,47.37636566,8.55024910,495.79760742,6,9,1
1326903514.87262273,47.37636566,8.55024910,495.81259155,6,9,1
1326903514.92547727,47.37636566,8.55024910,495.82757568,6,9,1
1326903514.97261214,47.37636566,8.55024815,495.84249878,6,9,1
1326903515.02452660,47.37636566,8.55024815,495.85739136,6,9,1
1326903515.07755017,47.37636948,8.55024910,495.74804688,6,9,1
1326903515.12553477,47.37636948,8.55024910,495.76235962,6,9,1
1326903515.17252612,47.37636948,8.55024910,495.77658081,6,9,1
1326903515.22551155,47.37636566,8.55024910,495.79080200,6,9,1
1326903515.27510810,47.37636566,8.55024910,495.80496216,6,9,1
1326903515.32584977,47.37636948,8.55025005,495.65643311,6,9,1
1326903515.37253165,47.37636948,8.55025005,495.66989136,6,9,1
1326903515.42452765,47.37636948,8.55025005,495.68328857,6,9,1
1326903515.47352362,47.37636948,8.55025005,495.69662476,6,9,1
1326903515.52452755,47.37636948,8.55025005,495.70993042,6,9,1
1326903515.57750201,47.37636948,8.55025101,495.53182983,6,9,1
1326903515.62552595,47.37636948,8.55025101,495.54431152,6,9,1
1326903515.67355371,47.37636948,8.55025101,495.55676270,6,9,1
1326903515.72550774,47.37636948,8.55025101,495.56918335,6,9,1
1326903515.77356958,47.37636948,8.55025101,495.58154297,6,9,1
1326903515.82552695,47.37636948,8.55025291,495.37261963,6,9,1
1326903515.87349963,47.37636948,8.55025196,495.38403320,6,9,1
1326903515.92454576,47.37636948,8.55025196,495.39541626,6,9,1
1326903515.97253299,47.37636948,8.55025196,495.40670776,6,9,1
1326903516.02550960,47.37636948,8.55025196,495.41799927,6,9,1
1326903516.07326460,47.37636948,8.55025387,495.19149780,6,9,1
1326903516.12568688,47.37636948,8.55025387,495.20172119,6,9,1
1326903516.17250133,47.37636948,8.55025387,495.21191406,6,9,1
1326903516.22524142,47.37636948,8.55025387,495.22207642,6,9,1
1326903516.27349377,47.37636948,8.55025387,495.23220825,6,9,1
1326903516.32475972,47.37636948,8.55025578,494.99584961,6,9,1
1326903516.37250423,47.37636948,8.55025578,495.00488281,6,9,1
1326903516.42497253,47.37636948,8.55025578,495.01391602,6,9,1
1326903516.47311568,47.37636948,8.55025578,495.02288818,6,9,1
1326903516.52548146,47.37636948,8.55025578,495.03176880,6,9,1
1326903516.57262230,47.37637329,8.55025673,494.78833008,6,9,1
1326903516.62462234,47.37637329,8.55025673,494.79614258,6,9,1
1326903516.67371774,47.37637329,8.55025673,494.80392456,6,9,1
1326903516.72564483,47.37637329,8.55025673,494.81167603,6,9,1
1326903516.77352047,47.37637329,8.55025768,494.58947754,6,9,1
1326903516.82453370,47.37637329,8.55025768,494.58782959,6,9,1
1326903516.87297630,47.37637329,8.55025768,494.59454346,6,9,1
1326903516.92650604,47.37637329,8.55025768,494.60119629,6,9,1
1326903516.97286940,47.37637329,8.55025768,494.60778809,6,9,1
1326903517.02563977,47.37637329,8.55025768,494.61434937,6,9,1
1326903517.07350206,47.37637329,8.55025864,494.38244629,6,9,1
1326903517.12450314,47.37637329,8.55025864,494.38800049,6,9,1
1326903517.17371297,47.37637329,8.55025864,494.39349365,6,9,1
1326903517.22552371,47.37637329,8.55025864,494.39892578,6,9,1
1326903517.27265596,47.37637329,8.55025864,494.40432739,6,9,1
1326903517.32547402,47.37637329,8.55025959,494.19067383,6,9,1
1326903517.37250805,47.37637329,8.55025959,494.19512939,6,9,1
1326903517.42554641,47.37637329,8.55025959,494.19955444,6,9,1
1326903517.47369456,47.37637329,8.55025959,494.20394897,6,9,1
1326903517.52574730,47.37637329,8.55025959,494.20831299,6,9,1
1326903517.57259679,47.37637711,8.55025959,494.01138306,6,9,1
1326903517.62156820,47.37637711,8.55025959,494.01486206,6,9,1
1326903517.67251182,47.37637329,8.55025959,494.01834106,6,9,1
1326903517.72455502,47.37637329,8.55025959,494.02175903,6,9,1
1326903517.77362466,47.37637329,8.55025959,494.02511597,6,9,1
1326903517.82163215,47.37637711,8.55026054,493.84524536,6,9,1
1326903517.87357521,47.37637711,8.55026054,493.84783936,6,9,1
1326903517.92554474,47.37637711,8.55026054,493.85037231,6,9,1
1326903517.97460508,47.37637711,8.55026054,493.85287476,6,9,1
1326903518.02550483,47.37637711,8.55026054,493.85528564,6,9,1
1326903518.07355952,47.37637711,8.55026054,493.68344116,6,9,1
1326903518.12837982,47.37637711,8.55026054,493.68505859,6,9,1
1326903518.17350745,47.37637711,8.55026054,493.68667603,6,9,1
1326903518.22455072,47.37637711,8.55026054,493.68823242,6,9,1
1326903518.27356172,47.37637711,8.55026054,493.68975830,6,9,1
1326903518.32452202,47.37637711,8.55026054,493.52798462,6,9,1
1326903518.37249660,47.37637711,8.55026054,493.52874756,6,9,1
1326903518.42476583,47.37637711,8.55026054,493.52947998,6,9,1
1326903518.47255564,47.37637711,8.55026054,493.53018188,6,9,1
1326903518.52547932,47.37637711,8.55026054,493.53085327,6,9,1
1326903518.57557845,47.37637711,8.55026150,493.38403320,6,9,1
1326903518.62460566,47.37637711,8.55026150,493.38406372,6,9,1
1326903518.67354083,47.37637711,8.55026150,493.38406372,6,9,1
1326903518.72554350,47.37637711,8.55026150,493.38403320,6,9,1
1326903518.77255750,47.37637711,8.55026150,493.38394165,6,9,1
1326903518.82472181,47.37637711,8.55026150,493.25537109,6,9,1
1326903518.87319589,47.37637711,8.55026150,493.25476074,6,9,1
1326903518.92450881,47.37637711,8.55026150,493.25405884,6,9,1
1326903518.97354889,47.37637711,8.55026150,493.25335693,6,9,1
1326903519.02569103,47.37637711,8.55026150,493.25259399,6,9,1
1326903519.07355237,47.37637711,8.55026150,493.12878418,6,9,1
1326903519.12460971,47.37637711,8.55026150,493.12750244,6,9,1
1326903519.17352486,47.37637711,8.55026150,493.12619019,6,9,1
1326903519.22455406,47.37637711,8.55026150,493.12481689,6,9,1
1326903519.27363825,47.37637711,8.55026150,493.12341309,6,9,1
1326903519.32550144,47.37637711,8.55026150,492.99649048,6,9,1
1326903519.37262201,47.37637711,8.55026150,492.99450684,6,9,1
1326903519.42563963,47.37637711,8.55026150,492.99246216,6,9,1
1326903519.47350883,47.37637711,8.55026150,492.99035645,6,9,1
1326903519.52461147,47.37637711,8.55026150,492.98822021,6,9,1
1326903519.57351589,47.37637711,8.55026150,492.85742188,6,9,1
1326903519.62454057,47.37637711,8.55026150,492.85470581,6,9,1
1326903519.67350078,47.37637711,8.55026150,492.85192871,6,9,1
1326903519.72547936,47.37637711,8.55026150,492.84915161,6,9,1
1326903519.77350950,47.37637711,8.55026150,492.84628296,5,9,1
1326903519.82795477,47.37638092,8.55026150,492.70706177,5,9,1
1326903519.87348318,47.37638092,8.55026150,492.70361328,5,9,1
1326903519.92360497,47.37638092,8.55026150,492.70016479,5,9,1
1326903519.97365642,47.37638092,8.55026150,492.69662476,5,9,1
1326903520.02452469,47.37638092,8.55026150,492.69308472,5,9,1
1326903520.07269692,47.37638092,8.55026150,492.54101562,5,9,1
1326903520.12546611,47.37638092,8.55026150,492.53680420,5,9,1
1326903520.17250204,47.37638092,8.55026150,492.53253174,5,9,1
1326903520.22573280,47.37638092,8.55026150,492.52825928,5,9,1
1326903520.27354407,47.37638092,8.55026150,492.52392578,5,9,1
1326903520.32452393,47.37638092,8.55026054,492.36441040,5,9,1
1326903520.37349629,47.37638092,8.55026054,492.35943604,5,9,1
1326903520.42546821,47.37638092,8.55026054,492.35440063,5,9,1
1326903520.47363806,47.37638092,8.55026054,492.34933472,5,9,1
1326903520.52550530,47.37638092,8.55026054,492.34423828,5,9,1
1326903520.57266521,47.37638092,8.55026150,492.18200684,5,9,1
1326903520.62464976,47.37638092,8.55026150,492.17623901,5,9,1
1326903520.67367125,47.37638092,8.55026150,492.17044067,5,9,1
1326903520.72552538,47.37638092,8.55026150,492.16458130,5,9,1
1326903520.77427745,47.37638092,8.55026150,492.15866089,5,9,1
1326903520.82464743,47.37638092,8.55026150,491.99395752,5,9,1
1326903520.87310338,47.37638092,8.55026150,491.98733521,5,9,1
1326903520.92548013,47.37638092,8.55026150,491.98065186,5,9,1
1326903520.97348475,47.37638092,8.55026150,491.97393799,5,9,1
1326903521.02489400,47.37638092,8.55026150,491.96719360,5,9,1
1326903521.07349873,47.37638474,8.55026054,491.80352783,5,9,1
1326903521.12457466,47.37638474,8.55026054,491.79608154,5,9,1
1326903521.17364359,47.37638474,8.55026054,491.78860474,5,9,1
1326903521.22501945,47.37638474,8.55026054,491.78109741,5,9,1
1326903521.27355266,47.37638092,8.55026054,491.77352905,5,9,1
1326903521.32547426,47.37638474,8.55026054,491.59835815,5,9,1
1326903521.37383914,47.37638474,8.55026054,491.59005737,5,9,1
1326903521.42446566,47.37638474,8.55026054,491.58169556,5,9,1
1326903521.47352266,47.37638474,8.55026054,491.57333374,5,9,1
1326903521.52454591,47.37638474,8.55026054,491.56491089,5,9,1
1326903521.57353354,47.37638474,8.55026054,491.38937378,5,9,1
1326903521.62531114,47.37638474,8.55026054,491.38024902,5,9,1
1326903521.67335224,47.37638474,8.55026054,491.37106323,5,9,1
1326903521.72550440,47.37638474,8.55026054,491.36187744,5,9,1
1326903521.77302551,47.37638474,8.55026054,491.35266113,4,9,1
1326903521.82462025,47.37638855,8.55025959,491.18362427,4,9,1
1326903521.87348723,47.37638474,8.55025959,491.17373657,4,9,1
1326903521.92455387,47.37638474,8.55025959,491.16378784,4,9,1
1326903521.97351313,47.37638474,8.55025959,491.15380859,4,9,1
1326903522.02498388,47.37638474,8.55025864,491.14379883,4,9,1
1326903522.07320857,47.37638855,8.55025864,490.95407104,4,9,1
1326903522.12547731,47.37638855,8.55025864,490.94326782,4,9,1
1326903522.17317605,47.37638855,8.55025864,490.93240356,4,9,1
1326903522.22462034,47.37638855,8.55025864,490.92150879,4,9,1
1326903522.27451229,47.37638855,8.55025864,490.73309326,4,9,1
1326903522.32461476,47.37638855,8.55025864,490.71731567,4,9,1
1326903522.37251997,47.37638855,8.55025864,490.70559692,4,9,1
1326903522.42453361,47.37638855,8.55025864,490.69381714,4,9,1
1326903522.47251463,47.37638855,8.55025864,490.68197632,4,9,1
1326903522.52547574,47.37638855,8.55025864,490.48901367,4,9,1
1326903522.57251501,47.37638855,8.55025959,490.47677612,4,9,1
1326903522.62461615,47.37638855,8.55025959,490.46411133,4,9,1
1326903522.67364240,47.37638855,8.55025959,490.45141602,4,9,1
1326903522.72498918,47.37638855,8.55025959,490.43862915,4,9,1
1326903522.77351069,47.37638855,8.55026054,490.25057983,4,9,1
1326903522.82449651,47.37638855,8.55026054,490.23712158,4,9,1
1326903522.87261772,47.37638855,8.55026054,490.22360229,4,9,1
1326903522.92550278,47.37638855,8.55026054,490.21005249,4,9,1
1326903522.97262836,47.37638855,8.55026054,490.19647217,4,9,1
1326903523.02451015,47.37638855,8.55026150,490.00271606,4,9,1
1326903523.08026671,47.37638855,8.55026150,489.98834229,4,9,1
1326903523.12461185,47.37638855,8.55026150,489.97393799,4,9,1
1326903523.17349792,47.37638855,8.55026150,489.95947266,4,9,1
1326903523.22482944,47.37638855,8.55026150,489.94497681,4,9,1
1326903523.27288914,47.37638855,8.55026436,489.75833130,4,9,1
1326903523.32547688,47.37638855,8.55026436,489.74310303,4,9,1
1326903523.37261057,47.37638855,8.55026436,489.72784424,4,9,1
1326903523.42163563,47.37638855,8.55026436,489.71252441,4,9,1
1326903523.47350717,47.37638474,8.55026531,489.69717407,4,9,1
1326903523.52163339,47.37638855,8.55026531,489.50451660,4,9,1
1326903523.57255673,47.37638855,8.55026913,489.49581909,4,9,1
1326903523.62471032,47.37638474,8.55026913,489.47973633,4,9,1
1326903523.67266560,47.37638474,8.55026913,489.46362305,4,9,1
1326903523.72547817,47.37638474,8.55026913,489.44747925,2,9,1
1326903523.77352309,47.37638474,8.55026817,489.23477173,2,9,1
1326903523.82461429,47.37638474,8.55026817,489.21774292,2,9,1
1326903523.87365031,47.37638474,8.55026913,489.20068359,2,9,1
1326903523.92321944,47.37638474,8.55026913,489.18356323,2,9,1
1326903523.97253227,47.37638474,8.55026913,489.16638184,2,9,1
1326903524.02325082,47.37638474,8.55026913,488.96652222,2,9,1
1326903524.07347941,47.37638474,8.55026817,488.95300293,2,9,1
1326903524.12549758,47.37638474,8.55026817,488.93499756,2,9,1
1326903524.17347121,47.37638474,8.55026913,488.91699219,2,9,1
1326903524.22452354,47.37638474,8.55026913,488.89895630,2,9,1
1326903524.27356553,47.37638474,8.55026913,488.70043945,2,9,1
1326903524.32555604,47.37638474,8.55026913,488.67980957,2,9,1
1326903524.37252808,47.37638474,8.55026913,488.66091919,2,9,1
1326903524.42450881,47.37638474,8.55026913,488.64199829,2,9,1
1326903524.47254872,47.37638474,8.55026913,488.62301636,2,9,1
1326903524.52547789,47.37638474,8.55026913,488.42913818,2,9,1
1326903524.57349539,47.37638474,8.55027008,488.41506958,2,9,1
1326903524.62462687,47.37638474,8.55027008,488.39535522,2,9,1
1326903524.67400193,47.37638474,8.55027008,488.37557983,2,9,1
1326903524.72450590,47.37638474,8.55027008,488.35571289,2,9,1
1326903524.77348089,47.37638474,8.55027008,488.18243408,2,9,1
1326903524.82457161,47.37638474,8.55027103,488.16195679,2,9,1
1326903524.87251139,47.37638474,8.55027103,488.14138794,2,9,1
1326903524.92546582,47.37638474,8.55027103,488.12078857,2,9,1
1326903524.97249341,47.37638474,8.55027103,488.10012817,2,9,1
1326903525.02449012,47.37638474,8.55027103,487.92361450,2,9,1
1326903525.07749391,47.37638474,8.55027103,487.91567993,2,9,1
1326903525.12444663,47.37638474,8.55027103,487.89443970,2,9,1
1326903525.17348433,47.37638474,8.55027199,487.87316895,2,9,1
1326903525.22475266,47.37638474,8.55027199,487.85183716,2,9,1
1326903525.27349210,47.37638474,8.55027199,487.67626953,2,9,1
1326903525.32548523,47.37638474,8.55027199,487.65609741,2,9,1
1326903525.37304521,47.37638474,8.55027199,487.63406372,2,9,1
1326903525.42563820,47.37638474,8.55027199,487.61196899,2,9,1
1326903525.47351646,47.37638474,8.55027199,487.58984375,2,9,1
